Weather in Bad Saulgau

Germany     48°00′53″N   9°30′00″E
temp.,
°C
wind,
m/s
gust,
m/s
humid.,
%
clouds,
%
prec.,
mm/h
press.,
hPa
HPBL,
m
15 may, sat
sat1523:00+7wsw51193100 1.8 1013351
02:00+5sw3995100 1.8 1013235
05:00+4sw3596100 0.0 101295
08:00+7sw3689100 0.0 1012267
11:00+11sw476897 0.0 10101221
14:00+14sw575495 0.0 10072151
17:00+10wsw81177100 0.1 10081017
20:00+7sw51195100 2.1 1010608
16 may, sun
sun1623:00+7sw61295100 3.4 10101072
02:00+7sw6109540 4.1 1010660
05:00+6ssw5109682 0.8 1010545
08:00+7s579338 0.8 1009303
11:00+8s3594100 1.9 1008304
14:00+8wnw2694100 6.0 1008381
17:00+10sw61087100 1.9 1007789
20:00+8ssw51296100 3.1 1007751
17 may, mon
mon1723:00+8sw6149240 1.2 1009573
02:00+6sw512930 1.2 1009383
05:00+6sw61293100 0.0 1010716
08:00+7sw71391100 0.1 10111224
11:00+10wsw8147297 0.1 10111547
14:00+11w9136860 0.6 10111635
17:00+12w813696 0.6 10111671
20:00+9wsw71476100 0.9 1012934
18 may, tue
tue1823:00+8wsw61385100 0.1 10141017
02:00+7sw61392100 0.3 1014934
05:00+7sw71392100 0.0 10141086
08:00+7wsw71480100 0.1 10151355
11:00+9w81376100 0.3 10161317
14:00+10w9117287 1.0 10171447
17:00+10w6107282 0.4 10171325
20:00+8wsw59877 1.2 1018569
19 may, wed
wed1923:00+5sw5129480 0.2 1021474
02:00+5ssw5109757 1.0 1020384
05:00+6sw499794 0.3 1020734
08:00+4sw6997100 1.1 1022431
11:00+5wsw589598 0.9 1023565
14:00+8sw688890 1.6 1023672
17:00+10wsw698348 2.1 10221079
20:00+8wsw4986100 3.4 1023250